TimeEDT,TemperatureF,Dew PointF,Humidity,Sea Level PressureIn,VisibilityMPH,Wind Direction,Wind SpeedMPH,Gust SpeedMPH,PrecipitationIn,Events,Conditions,WindDirDegrees,DateUTC
12:51 AM,73.9,69.1,85,29.89,10.0,SSE,8.1,-,N/A,,Mostly Cloudy,160,2013-08-28 04:51:00
1:51 AM,73.0,69.1,87,29.88,10.0,South,4.6,-,N/A,,Overcast,180,2013-08-28 05:51:00
2:22 AM,73.4,69.8,88,29.89,10.0,SSW,3.5,-,N/A,,Overcast,200,2013-08-28 06:22:00
2:32 AM,73.4,69.8,88,29.89,10.0,South,4.6,-,N/A,,Overcast,190,2013-08-28 06:32:00
2:51 AM,73.0,69.1,87,29.86,10.0,South,5.8,-,N/A,,Overcast,180,2013-08-28 06:51:00
3:51 AM,73.0,68.0,84,29.85,10.0,SW,3.5,-,0.00,,Mostly Cloudy,220,2013-08-28 07:51:00
4:51 AM,73.0,68.0,84,29.85,10.0,SSW,4.6,-,N/A,,Overcast,200,2013-08-28 08:51:00
5:47 AM,71.6,69.8,94,29.85,8.0,South,6.9,-,0.04,Rain,Light Rain,190,2013-08-28 09:47:00
5:51 AM,72.0,69.1,91,29.84,10.0,South,4.6,-,0.04,Rain,Light Rain,170,2013-08-28 09:51:00
6:51 AM,73.0,69.1,87,29.85,6.0,Calm,Calm,-,0.00,Rain,Light Rain,0,2013-08-28 10:51:00
7:03 AM,71.6,69.8,94,29.85,2.5,Calm,Calm,-,0.04,Rain,Rain,0,2013-08-28 11:03:00
7:13 AM,71.6,69.8,94,29.84,4.0,SSE,5.8,-,0.06,Rain,Light Rain,150,2013-08-28 11:13:00
7:51 AM,72.0,69.1,91,29.83,5.0,SSE,9.2,-,0.09,Rain,Light Rain,160,2013-08-28 11:51:00
8:51 AM,73.0,70.0,90,29.83,10.0,South,8.1,-,0.01,Rain,Light Rain,180,2013-08-28 12:51:00
9:49 AM,73.4,69.8,88,29.84,1.8,South,9.2,-,0.05,Rain,Rain,170,2013-08-28 13:49:00
9:51 AM,73.0,69.1,87,29.83,1.2,South,6.9,-,0.08,Rain,Heavy Rain,180,2013-08-28 13:51:00
10:05 AM,73.4,69.8,88,29.83,3.0,SSE,6.9,-,0.13,Rain,Light Rain,160,2013-08-28 14:05:00
10:49 AM,73.4,69.8,88,29.85,2.5,East,3.5,-,0.16,Rain,Light Rain,100,2013-08-28 14:49:00
10:51 AM,73.0,70.0,90,29.83,3.0,East,3.5,-,0.16,Rain,Light Rain,100,2013-08-28 14:51:00
10:58 AM,73.4,69.8,88,29.85,2.5,ENE,4.6,-,0.01,Rain,Rain,70,2013-08-28 14:58:00
11:13 AM,73.4,69.8,88,29.84,3.0,East,4.6,-,0.02,Rain,Light Rain,90,2013-08-28 15:13:00
11:39 AM,73.4,71.6,94,29.85,7.0,SSE,3.5,-,0.02,Rain,Light Rain,150,2013-08-28 15:39:00
11:51 AM,75.0,71.1,87,29.83,4.0,ESE,3.5,-,0.03,Rain,Light Rain,110,2013-08-28 15:51:00
12:15 PM,75.2,71.6,89,29.85,5.0,NNE,5.8,-,0.01,Rain,Light Rain,30,2013-08-28 16:15:00
12:40 PM,73.4,69.8,88,29.86,2.0,NNE,3.5,-,0.02,Rain,Rain,30,2013-08-28 16:40:00
12:44 PM,73.4,69.8,88,29.86,3.0,NE,3.5,-,0.03,Rain,Light Rain,50,2013-08-28 16:44:00
12:51 PM,73.9,70.0,87,29.84,9.0,NE,6.9,-,0.03,Rain,Light Rain,40,2013-08-28 16:51:00
1:17 PM,73.4,69.8,88,29.86,7.0,NE,6.9,-,0.00,Rain,Light Rain,50,2013-08-28 17:17:00
1:51 PM,75.9,71.1,85,29.85,10.0,NE,8.1,-,0.00,,Overcast,40,2013-08-28 17:51:00
2:41 PM,75.2,69.8,83,29.87,10.0,NE,11.5,20.7,N/A,,Overcast,40,2013-08-28 18:41:00
2:51 PM,79.0,70.0,74,29.86,10.0,NE,13.8,-,N/A,,Mostly Cloudy,40,2013-08-28 18:51:00
3:51 PM,78.1,70.0,76,29.86,10.0,NE,10.4,-,N/A,,Scattered Clouds,40,2013-08-28 19:51:00
4:51 PM,79.0,69.1,72,29.87,10.0,North,11.5,-,N/A,,Partly Cloudy,10,2013-08-28 20:51:00
5:42 PM,78.8,69.8,74,29.89,9.0,NNE,9.2,17.3,N/A,,Mostly Cloudy,20,2013-08-28 21:42:00
5:51 PM,79.0,69.1,72,29.88,9.0,NNE,9.2,-,N/A,,Scattered Clouds,30,2013-08-28 21:51:00
6:51 PM,77.0,68.0,74,29.89,10.0,NNE,6.9,-,N/A,,Clear,30,2013-08-28 22:51:00
7:51 PM,75.0,69.1,82,29.90,7.0,NNE,9.2,-,N/A,,Clear,30,2013-08-28 23:51:00
8:51 PM,73.9,69.1,85,29.92,7.0,NE,4.6,-,N/A,,Clear,50,2013-08-29 00:51:00
9:51 PM,73.9,69.1,85,29.94,8.0,NE,3.5,-,N/A,,Scattered Clouds,50,2013-08-29 01:51:00
10:51 PM,73.9,69.1,85,29.96,9.0,ENE,4.6,-,N/A,,Scattered Clouds,60,2013-08-29 02:51:00
11:51 PM,73.0,69.1,87,29.96,9.0,NNE,3.5,-,N/A,,Clear,20,2013-08-29 03:51:00